Location: Balaclava NSW 2575, Australia
(34.4510°S, 150.4953°E)
Time: 01:43:47
(UTC+10:00)

ISS - Visible Passes

Search period start: 16 May 2021 00:00
Search period end: 26 May 2021 00:00
Orbit: 417 x 422 km, 51.6° (Epoch: 15 May)

Date Brightness Start Highest point End Pass type
(mag) Time Alt. Az. Time Alt. Az. Time Alt. Az.
19 May -0.9 05:58:08 10° N 06:00:50 22° NE 06:03:34 10° ESE visible
20 May -0.4 05:12:06 10° NNE 05:13:32 12° NE 05:14:58 10° E visible
21 May -3.6 05:59:06 10° NW 06:02:30 83° NE 06:05:57 10° SE visible
22 May -2.5 05:12:48 17° NNW 05:15:05 42° NE 05:18:21 10° ESE visible
23 May -1.0 04:28:43 20° ENE 04:28:43 20° ENE 04:30:28 10° ESE visible
23 May -2.8 06:01:45 12° W 06:04:25 30° SW 06:07:30 10° SSE visible
24 May -3.4 05:17:14 48° SSW 05:17:14 48° SSW 05:20:14 10° SE visible
25 May -0.7 04:32:26 13° SE 04:32:26 13° SE 04:32:49 10° SE visible
25 May -1.7 06:05:26 12° SW 06:06:35 13° SSW 06:08:22 10° S visible
